Weather History for KGLH - September, 2011

Change the Weather History Date:

Sunday, September 18, 2011

  Actual Average Record
Temperature  
Mean Temperature 79 °F 74 °F  
Max Temperature 87 °F 86 °F 101 °F (1925)
Min Temperature 70 °F 62 °F 48 °F (1981)
Degree Days  
Heating Degree Days 0 0  
Month to date heating degree days 2 0  
Since 1 July heating degree days 2 0  
Cooling Degree Days 14 9  
Month to date cooling degree days 148 215  
Year to date cooling degree days 2302 1994  
Growing Degree Days 28 (Base 50)    
Moisture  
Dew Point 67 °F    
Average Humidity 69    
Maximum Humidity 90    
Minimum Humidity 48    
Precipitation  
Precipitation T in 0.08 in 0.85 in (1972)
Month to date precipitation 2.41 1.87  
Year to date precipitation 19.43 36.43  
Sea Level Pressure  
Sea Level Pressure 30.06 in    
Wind  
Wind Speed 4 mph (South)    
Max Wind Speed 10 mph    
Max Gust Speed 16 mph    
Visibility 9 miles    
Events      
T = Trace of Precipitation, MM = Missing Value Source: NWS Daily Summary

Daily Weather History Graph

Daily Weather History Graph

Search for Another Location

Airport or City:

Trip Planner

Search our weather history database for the weather conditions in past years. The results will help you decide how hot, cold, wet, or windy it might be!

Date:

Astronomy

Sep. 18, 2011 Rise Set
Actual Time 6:49 AM CDT 7:06 PM CDT
Civil Twilight 6:24 AM CDT 7:31 PM CDT
Nautical Twilight 5:55 AM CDT 8:00 PM CDT
Astronomical Twilight 5:25 AM CDT 8:29 PM CDT
Moon 10:42 PM CDT (9/18) 12:26 PM CDT (9/18)
Length of Visible Light 13h 07m
Length of Day
12h 17m
Waning Gibbous, 68% of the Moon is Illuminated
Sep 18
Waning Gibbous
Sep 20
Last Quarter
Sep 27
New
Oct 3
First Quarter
Oct 11
Full

Hourly Weather History & Observations

Time (CDT) Temp. Heat Index Dew Point Humidity Pressure Visibility Wind Dir Wind Speed Gust Speed Precip Events Conditions
12:53 AM 71.1 °F - 66.0 °F 84% 30.07 in 10.0 mi NE 3.5 mph - N/A   Clear
1:53 AM 72.0 °F - 66.9 °F 84% 30.07 in 10.0 mi Calm Calm - N/A   Clear
2:53 AM 72.0 °F - 66.9 °F 84% 30.08 in 10.0 mi ESE 3.5 mph - N/A   Clear
4:53 AM 71.6 °F - 66.2 °F 83% 30.06 in 9.0 mi Calm Calm - N/A   Clear
5:53 AM 70.0 °F - 66.9 °F 90% 30.09 in 9.0 mi Calm Calm - N/A   Clear
6:53 AM 70.0 °F - 66.9 °F 90% 30.09 in 8.0 mi East 3.5 mph - N/A   Clear
7:53 AM 71.1 °F - 68.0 °F 90% 30.10 in 7.0 mi North 3.5 mph - N/A   Clear
8:53 AM 73.0 °F - 68.0 °F 84% 30.11 in 8.0 mi SSE 5.8 mph - N/A   Clear
9:53 AM 73.9 °F - 69.1 °F 85% 30.13 in 8.0 mi Variable 3.5 mph - 0.00 in   Clear
10:53 AM 78.1 °F - 69.1 °F 74% 30.13 in 9.0 mi SSW 8.1 mph - 0.00 in   Clear
11:53 AM 78.1 °F - 69.1 °F 74% 30.13 in 8.0 mi SW 4.6 mph - N/A   Clear
12:53 PM 79.0 °F - 69.1 °F 72% 30.11 in 6.0 mi SW 6.9 mph - N/A   Haze
1:53 PM 82.4 °F 85.4 °F 68.0 °F 62% 30.07 in 10.0 mi Variable 3.5 mph - N/A   Partly Cloudy
2:53 PM 82.9 °F 84.0 °F 63.0 °F 51% 30.05 in 10.0 mi SW 8.1 mph - N/A   Partly Cloudy
3:53 PM 86.0 °F 87.3 °F 64.0 °F 48% 30.02 in 10.0 mi Variable 6.9 mph - N/A   Clear
4:53 PM 84.9 °F 85.9 °F 63.0 °F 48% 30.01 in 10.0 mi WSW 4.6 mph - N/A   Clear
5:53 PM 82.4 °F 83.4 °F 62.6 °F 51% 30.00 in 10.0 mi West 3.5 mph - N/A   Clear
6:53 PM 82.0 °F 83.1 °F 63.0 °F 52% 30.00 in 10.0 mi Calm Calm - 0.00 in   Clear
7:53 PM 80.1 °F 81.9 °F 64.9 °F 60% 29.99 in 10.0 mi Variable 5.8 mph - N/A   Mostly Cloudy
8:53 PM 78.1 °F - 71.1 °F 79% 30.01 in 10.0 mi SE 3.5 mph - N/A   Partly Cloudy
9:53 PM 77.0 °F - 71.6 °F 83% 29.98 in 10.0 mi SE 5.8 mph - N/A   Clear
10:53 PM 75.9 °F - 71.1 °F 85% 30.03 in 10.0 mi Calm Calm - N/A   Partly Cloudy
11:53 PM 75.0 °F - 71.1 °F 87% 30.02 in 9.0 mi South 3.5 mph - N/A   Clear